Regional Weather Roundup
Issued by NWS Tiyan, Guam

Home | Current Version | Previous Version | Text Only | Print | Product List | Glossary On
Versions: 1 2 3 4 5 6 7 8 9 10 11 12 13 14 15 16 17 18 19 20 21 22 23 24 25 26 27 28 29 30 31 32 33 34 35 36 37 38 39 40 41 42 43 44 45 46 47 48 49 50
000
ASGM40 PGUM 220412
RWRGUM
WEATHER ROUNDUP FOR THE MARIANAS
NATIONAL WEATHER SERVICE TIYAN GU
200 PM CHST FRI AUG 22 2014

GUZ001>004-220500-
MARIANA ISLANDS-

CITY           SKY/WX    TMP DP  RH WIND       PRES   REMARKS
GUAM AIRPORT   PTSUNNY   86  75  70 W7        29.85F HX  95
ANDERSEN AFB   LGT RAIN  79  75  89 E3        29.84F
ROTA AIRPORT   MOSUNNY   82  75  78 VRB3      29.85S
TINIAN AP      MOSUNNY   84  81  89 SE9       29.81S HX  98
SAIPAN AP      SUNNY     88  77  70 SE7       29.83S HX 100

$$



USA.gov is the U.S. government's official web portal to all federal, state and local government web resources and services.